This demonstration page uses our WeatherBlox Daily Observations layout. Learn more.

Hourly Observations for July 8, 2017

Temp ( °F °C ) Dew Point ( °F °C ) Humidity (%) Winds ( mph kmh ) Pressure ( in mb ) Visibility ( mi km ) Precip ( " mm )
12:54 am 00:54 Clear 63 17.2 60 15.6 90 90 Calm 30.08 1019 10 16.0934 0 0
1:54 am 01:54 Clear 64 17.8 61 16.1 90 90 Calm 30.07 1018 10 16.0934 0 0
2:54 am 02:54 Clear 61 16.1 59 15 93 93 Calm 30.06 1018 10 16.0934 0 0
3:54 am 03:54 Clear 62 16.7 59 15 90 90 WSW 3 6 30.06 1018 10 16.0934 0 0
4:54 am 04:54 Clear 60 15.6 59 15 96 96 Calm 30.06 1018 10 16.0934 0 0
5:54 am 05:54 Clear 62 16.7 59 15 90 90 S 3 6 30.07 1018 10 16.0934 0 0
6:54 am 06:54 Sunny 63 17.2 60 15.6 90 90 SSW 5 7 30.11 1020 10 16.0934 0 0
7:54 am 07:54 Sunny 68 20 60 15.6 76 76 Calm 30.11 1020 10 16.0934 0 0
8:54 am 08:54 Sunny 73 22.8 63 17.2 71 71 Calm 30.11 1020 10 16.0934 0 0
9:54 am 09:54 Sunny 76 24.4 64 17.8 67 67 SW 7 11 30.11 1020 10 16.0934 0 0
10:54 am 10:54 Sunny 79 26.1 64 17.8 60 60 S 7 11 30.09 1019 10 16.0934 0 0
11:54 am 11:54 Sunny 81 27.2 63 17.2 54 54 S 8 13 30.08 1019 10 16.0934 0 0
12:54 pm 12:54 Sunny 83 28.3 63 17.2 51 51 SSE 8 13 30.06 1018 10 16.0934 0 0
1:54 pm 13:54 Sunny 86 30 63 17.2 46 46 SSE 9 15 30.04 1017 10 16.0934 0 0
2:54 pm 14:54 Sunny 86 30 60 15.6 42 42 S 14 22 30.02 1017 10 16.0934 0 0
3:54 pm 15:54 Sunny 87 30.6 64 17.8 46 46 S 10 17 30.01 1016 10 16.0934 0 0
4:54 pm 16:54 Sunny 87 30.6 63 17.2 45 45 S 7 11 30.01 1016 10 16.0934 0 0
5:54 pm 17:54 Sunny 87 30.6 65 18.3 48 48 S 6 9 30 1016 10 16.0934 0 0
6:54 pm 18:54 Sunny 85 29.4 63 17.2 48 48 S 3 6 29.98 1015 10 16.0934 0 0
7:54 pm 19:54 Sunny 85 29.4 64 17.8 50 50 E 5 7 29.98 1015 10 16.0934 0 0
8:54 pm 20:54 Sunny 83 28.3 63 17.2 51 51 ESE 5 7 29.98 1015 10 16.0934 0 0
9:54 pm 21:54 Clear 81 27.2 63 17.2 54 54 E 7 11 29.99 1016 10 16.0934 0 0
10:54 pm 22:54 Clear 78 25.6 65 18.3 64 64 ESE 3 6 30.01 1016 10 16.0934 0 0
11:54 pm 23:54 Clear 75 23.9 66 18.9 74 74 Calm 30.01 1016 10 16.0934 0 0

Powered by AerisWeather